FW9968 Weather Reports


time (UTC)temp
C
wind
direction
speed
KPH
gust
KPH
rain 1hr
cm
rain 24hr
cm
rain mn
cm
humidity
%
barometer
mb
20260905143637 24 116 0.0 0.0 0.00 0.00 0.00 75 1010.4
20260905143132 24 144 0.0 0.0 0.00 0.00 0.00 73 1010.3
20260905142631 24 153 0.0 0.0 0.00 0.00 0.00 77 1010.3
20260905142131 23 136 0.0 0.0 0.00 0.00 0.00 79 1010.4
20260905141630 23 147 0.0 0.0 0.00 0.00 0.00 77 1010.3
20260905141127 23 185 0.0 0.0 0.00 0.00 0.00 77 1010.1
20260905140622 23 136 0.0 0.0 0.00 0.00 0.00 81 1010.0
20260905140121 22 145 0.0 0.0 0.00 0.00 0.00 81 1010.2
20260905135616 22 186 0.0 0.0 0.00 0.00 0.00 82 1010.1
20260905135112 22 120 0.0 0.0 0.00 0.00 0.00 81 1010.0
20260905134606 22 84 0.0 0.0 0.00 0.00 0.00 82 1009.9
20260905134105 22 139 0.0 0.0 0.00 0.00 0.00 83 1010.1
20260905133601 22 125 0.0 0.0 0.00 0.00 0.00 85 1010.3
20260905133101 22 122 0.0 0.0 0.00 0.00 0.00 84 1009.9
20260905132600 22 145 0.0 0.0 0.00 0.00 0.00 85 1010.1
20260905132055 22 140 0.0 0.0 0.00 0.00 0.00 85 1010.1
20260905131551 22 119 0.0 0.0 0.00 0.00 0.00 86 1010.0
20260905131046 21 125 0.0 0.0 0.00 0.00 0.00 86 1010.0
20260905130545 21 180 0.0 0.0 0.00 0.00 0.00 88 1009.8
20260905130040 21 196 0.0 0.0 0.00 0.00 0.00 86 1009.8
20260905125539 21 159 0.0 0.0 0.00 0.00 0.00 87 1010.2
20260905125035 21 144 0.0 0.0 0.00 0.00 0.00 90 1010.1
20260905124532 21 140 0.0 0.0 0.00 0.00 0.00 91 1010.1
20260905124027 21 154 0.0 0.0 0.00 0.00 0.00 91 1010.1
20260905123523 21 138 0.0 0.0 0.00 0.00 0.00 92 1010.2
20260905123019 21 140 0.0 0.0 0.00 0.00 0.00 93 1010.1
20260905122513 21 144 0.0 0.0 0.00 0.00 0.00 92 1010.3
20260905122009 21 180 0.0 0.0 0.00 0.00 0.00 92 1010.3
20260905121508 21 140 0.0 0.0 0.00 0.00 0.00 93 1010.2
20260905121003 21 139 0.0 0.0 0.00 0.00 0.00 93 1010.4
20260905120457 21 153 0.0 0.0 0.00 0.00 0.00 94 1010.2
20260905115952 20 140 0.0 0.0 0.00 0.00 0.00 94 1010.3
20260905115451 20 142 0.0 0.0 0.00 0.00 0.00 94 1010.1
20260905114946 20 145 0.0 0.0 0.00 0.00 0.00 95 1010.1
20260905114446 20 141 0.0 0.0 0.00 0.00 0.00 95 1010.0
20260905113944 20 145 0.0 0.0 0.00 0.00 0.00 95 1010.1
20260905113440 20 145 0.0 0.0 0.00 0.00 0.00 96 1009.8
20260905112935 20 139 0.0 0.0 0.00 0.00 0.00 96 1010.0
20260905112431 20 137 0.0 0.0 0.00 0.00 0.00 97 1010.0
20260905111925 20 137 0.0 0.0 0.00 0.00 0.00 97 1009.9
20260905111420 20 142 0.0 0.0 0.00 0.00 0.00 98 1009.6
20260905110914 20 138 0.0 0.0 0.00 0.00 0.00 98 1009.7
20260905110408 20 138 0.0 0.0 0.00 0.00 0.00 99 1009.6
20260905105903 20 138 0.0 0.0 0.00 0.00 0.00 99 1009.7
20260905105402 20 140 0.0 0.0 0.00 0.00 0.00 99 1009.7
20260905104856 20 142 0.0 0.0 0.00 0.00 0.00 99 1009.6
20260905104352 20 138 0.0 0.0 0.00 0.00 0.00 99 1009.2
20260905103847 20 140 0.0 0.0 0.00 0.00 0.00 99 1009.2
20260905103342 20 138 0.0 0.0 0.00 0.00 0.00 99 1009.2
20260905102838 20 144 0.0 0.0 0.00 0.00 0.00 99 1009.1
20260905102335 20 140 0.0 0.0 0.00 0.00 0.00 99 1009.3
20260905101834 20 140 0.0 0.0 0.00 0.00 0.00 99 1009.3
20260905101333 20 138 0.0 0.0 0.00 0.00 0.00 99 1009.4
20260905100827 20 144 0.0 0.0 0.00 0.00 0.00 99 1009.3
20260905100324 20 153 0.0 0.0 0.00 0.00 0.00 99 1009.1
20260905095823 20 152 0.0 0.0 0.00 0.00 0.00 99 1009.1
20260905095323 20 145 0.0 0.0 0.00 0.00 0.00 99 1009.2
20260905094817 20 145 0.0 0.0 0.00 0.00 0.00 99 1009.0
20260905094314 20 145 0.0 0.0 0.00 0.00 0.00 99 1009.0
20260905093812 20 145 0.0 0.0 0.00 0.00 0.00 99 1009.3
20260905093308 20 144 0.0 0.0 0.00 0.00 0.00 99 1009.0
20260905092804 20 138 0.0 0.0 0.00 0.00 0.00 99 1009.1
20260905092306 20 138 0.0 0.0 0.00 0.00 0.00 99 1009.3
20260905091759 20 145 0.0 0.0 0.00 0.00 0.00 99 1009.1
20260905091258 20 145 0.0 0.0 0.00 0.00 0.00 99 1009.1
20260905090757 20 144 0.0 0.0 0.00 0.00 0.00 99 1009.1
20260905090253 20 151 0.0 0.0 0.00 0.00 0.00 99 1009.2
20260905085753 20 141 0.0 0.0 0.00 0.00 0.00 99 1009.0
20260905085253 21 138 0.0 0.0 0.00 0.00 0.00 99 1009.1
20260905084748 21 144 0.0 0.0 0.00 0.00 0.00 99 1009.1
20260905084248 21 149 0.0 0.0 0.00 0.00 0.00 99 1009.2
20260905083743 21 151 0.0 0.0 0.00 0.00 0.00 99 1009.0
20260905083238 21 145 0.0 0.0 0.00 0.00 0.00 99 1009.0
20260905082734 21 148 0.0 0.0 0.00 0.00 0.00 99 1009.2
20260905082230 21 149 0.0 0.0 0.00 0.00 0.00 99 1008.9
20260905081729 21 143 0.0 0.0 0.00 0.00 0.00 99 1009.0
20260905081225 21 142 0.0 0.0 0.00 0.00 0.00 99 1008.9
20260905080719 21 145 0.0 0.0 0.00 0.00 0.00 99 1009.1
20260905080219 21 145 0.0 0.0 0.00 0.00 0.00 99 1009.1
20260905075718 21 145 0.0 0.0 0.00 0.00 0.00 99 1009.2
20260905075217 21 145 0.0 0.0 0.00 0.00 0.00 99 1009.2
20260905074716 21 140 0.0 0.0 0.00 0.00 0.00 99 1009.1
20260905074212 22 144 0.0 0.0 0.00 0.00 0.00 99 1009.3
20260905073708 22 146 0.0 0.0 0.00 0.00 0.00 99 1009.2
20260905073203 21 145 0.0 0.0 0.00 0.00 0.00 99 1009.1
20260905072702 21 145 0.0 0.0 0.00 0.00 0.00 99 1009.3
20260905072158 21 145 0.0 0.0 0.00 0.00 0.00 99 1009.2
20260905071654 21 145 0.0 0.0 0.00 0.00 0.00 99 1009.2
20260905071150 22 145 0.0 0.0 0.00 0.00 0.00 99 1009.1
20260905070645 22 183 0.0 0.0 0.00 0.00 0.00 99 1009.4
20260905070141 22 145 0.0 0.0 0.00 0.00 0.00 99 1009.3
20260905065639 22 144 0.0 0.0 0.00 0.00 0.00 99 1009.3
20260905065133 22 144 0.0 0.0 0.00 0.00 0.00 99 1009.4
20260905064629 22 168 0.0 0.0 0.00 0.00 0.00 99 1009.4
20260905064124 22 136 0.0 0.0 0.00 0.00 0.00 99 1009.5
20260905063623 22 152 0.0 0.0 0.00 0.00 0.00 99 1009.5
20260905063119 22 151 0.0 0.0 0.00 0.00 0.00 99 1009.5
20260905062615 22 151 0.0 0.0 0.00 0.00 0.00 99 1009.7
20260905062114 22 151 0.0 0.0 0.00 0.00 0.00 99 1009.6
20260905061609 22 152 0.0 0.0 0.00 0.00 0.00 99 1009.7
20260905061103 22 148 0.0 0.0 0.00 0.00 0.00 99 1009.7
20260905060559 22 150 0.0 0.0 0.00 0.00 0.00 99 1009.7
20260905060054 22 144 0.0 0.0 0.00 0.00 0.00 98 1009.7
20260905055553 22 144 0.0 0.0 0.00 0.00 0.00 98 1009.7
20260905055049 22 143 0.0 0.0 0.00 0.00 0.00 98 1010.1
20260905054544 22 138 0.0 0.0 0.00 0.00 0.00 97 1009.7
20260905054039 22 140 0.0 0.0 0.00 0.00 0.00 97 1009.8
20260905053538 22 148 0.0 0.0 0.00 0.00 0.00 97 1009.8
20260905053034 22 148 0.0 0.0 0.00 0.00 0.00 96 1010.1
20260905052533 22 146 0.0 0.0 0.00 0.00 0.00 96 1009.9
20260905052028 22 148 0.0 0.0 0.00 0.00 0.00 95 1010.1
20260905051524 22 136 0.0 0.0 0.00 0.00 0.00 95 1010.0
20260905051021 22 144 0.0 0.0 0.00 0.00 0.00 96 1010.0
20260905050516 22 144 0.0 0.0 0.00 0.00 0.00 96 1009.8
20260905050013 22 144 0.0 0.0 0.00 0.00 0.00 96 1010.0
20260905045507 23 147 0.0 0.0 0.00 0.00 0.00 97 1010.2
20260905045002 23 157 0.0 0.0 0.00 0.00 0.00 97 1010.0
20260905044457 23 146 0.0 0.0 0.00 0.00 0.00 97 1009.8
20260905043957 23 146 0.0 0.0 0.00 0.00 0.00 97 1009.9
20260905043456 23 147 0.0 0.0 0.00 0.00 0.00 97 1010.0
20260905042951 23 148 0.0 0.0 0.00 0.00 0.00 97 1010.0
20260905042450 23 144 0.0 0.0 0.00 0.00 0.00 97 1010.2
20260905041946 23 144 0.0 0.0 0.00 0.00 0.00 97 1010.0
20260905041442 23 143 0.0 0.0 0.00 0.00 0.00 97 1010.0
20260905040936 23 143 0.0 0.0 0.00 0.00 0.00 97 1010.0
20260905040430 23 143 0.0 0.0 0.00 0.00 0.00 97 1009.9
20260905035930 23 143 0.0 0.0 0.00 0.10 0.10 97 1010.0
20260905035425 23 143 0.0 0.0 0.00 0.10 0.10 97 1009.9
20260905034922 23 143 0.0 0.0 0.00 0.10 0.10 97 1010.0
20260905034417 23 143 0.0 0.0 0.00 0.10 0.10 97 1010.1
20260905033916 23 143 0.0 0.0 0.00 0.10 0.10 97 1010.2
20260905033411 23 143 0.0 0.0 0.00 0.10 0.10 97 1010.1
20260905032911 23 143 0.0 0.0 0.00 0.10 0.10 97 1010.2
20260905032406 23 143 0.0 0.0 0.00 0.10 0.10 96 1010.2
20260905031901 23 143 0.0 0.0 0.00 0.10 0.10 96 1010.1
20260905031357 23 143 0.0 0.0 0.00 0.10 0.10 96 1010.1
20260905030852 23 143 0.0 0.0 0.00 0.10 0.10 96 1010.2
20260905030348 23 143 0.0 0.0 0.00 0.10 0.10 96 1010.0
20260905025846 23 146 0.0 0.0 0.00 0.10 0.10 96 1010.0
20260905025342 23 146 0.0 0.0 0.00 0.10 0.10 96 1010.0
20260905024839 23 155 0.0 0.0 0.00 0.10 0.10 96 1010.2
20260905024333 23 136 0.0 0.0 0.00 0.10 0.10 96 1010.2
20260905023829 23 144 0.0 0.0 0.00 0.10 0.10 96 1010.0
20260905023324 23 140 0.0 0.0 0.00 0.10 0.10 95 1009.9
20260905022822 23 143 0.0 0.0 0.00 0.10 0.10 95 1010.1
20260905022318 23 136 0.0 0.0 0.00 0.10 0.10 95 1010.0
20260905021818 23 143 0.0 0.0 0.00 0.10 0.10 95 1010.2
20260905021314 23 143 0.0 0.0 0.00 0.10 0.10 94 1010.0
20260905020813 23 143 0.0 0.0 0.00 0.10 0.10 94 1009.9
20260905020309 23 144 0.0 0.0 0.00 0.10 0.10 94 1009.9
20260905015808 23 144 0.0 0.0 0.00 0.10 0.10 94 1009.8
20260905015306 23 144 0.0 0.0 0.00 0.10 0.10 94 1009.9
20260905014801 23 144 0.0 0.0 0.00 0.10 0.10 94 1009.8
20260905014257 23 139 0.0 0.0 0.00 0.10 0.10 94 1010.0
20260905013752 23 139 0.0 0.0 0.00 0.10 0.10 94 1010.0
20260905013248 23 137 0.0 0.0 0.00 0.10 0.10 93 1010.0
20260905012744 23 137 0.0 0.0 0.00 0.10 0.10 93 1010.0
20260905012239 23 149 0.0 0.0 0.00 0.10 0.10 92 1010.1
20260905011736 23 149 0.0 0.0 0.00 0.10 0.10 92 1010.0
20260905011231 23 149 0.0 0.0 0.00 0.10 0.10 92 1010.1
20260905010726 23 149 0.0 0.0 0.00 0.10 0.10 92 1010.1
20260905010221 23 152 0.0 0.0 0.00 0.10 0.10 92 1010.2
20260905005717 23 151 0.0 0.0 0.00 0.10 0.10 92 1010.2
20260905005213 23 153 0.0 0.0 0.00 0.10 0.10 91 1010.0
20260905004707 23 153 0.0 0.0 0.00 0.10 0.10 91 1010.1
20260905004203 23 152 0.0 0.0 0.00 0.10 0.10 91 1009.8
20260905003657 23 148 0.0 0.0 0.00 0.10 0.10 91 1009.9
20260905003154 23 153 0.0 0.0 0.00 0.10 0.10 91 1009.8
20260905002649 23 154 0.0 0.0 0.00 0.10 0.10 90 1009.9
20260905002149 23 150 0.0 0.0 0.00 0.10 0.10 90 1009.8
20260905001644 23 150 0.0 0.0 0.00 0.10 0.10 90 1009.7
20260905001143 24 144 0.0 0.0 0.00 0.10 0.10 89 1009.4
20260905000638 24 143 0.0 0.0 0.00 0.10 0.10 89 1009.5
20260905000135 24 150 0.0 0.0 0.00 0.10 0.10 88 1009.6
20260904235634 24 151 0.0 0.0 0.00 0.10 0.10 88 1009.7
20260904235133 24 157 0.0 0.0 0.00 0.10 0.10 87 1009.7
20260904234628 25 144 0.0 0.0 0.00 0.10 0.10 87 1009.5
20260904234124 25 156 0.0 0.0 0.00 0.10 0.10 87 1009.7
20260904233620 25 151 0.0 0.0 0.00 0.10 0.10 85 1009.7
20260904233116 25 150 0.0 0.0 0.00 0.10 0.10 85 1009.6
20260904232612 25 162 0.0 0.0 0.00 0.10 0.10 83 1009.6
20260904232108 25 142 0.0 0.0 0.00 0.10 0.10 83 1009.8
20260904231604 25 151 0.0 0.0 0.00 0.10 0.10 82 1009.8
20260904231058 26 149 0.0 0.0 0.00 0.10 0.10 82 1009.6
20260904230557 26 149 0.0 0.0 0.00 0.10 0.10 80 1009.8
20260904230053 26 136 0.0 0.0 0.00 0.10 0.10 80 1009.6
20260904225550 26 152 0.0 0.0 0.00 0.10 0.10 82 1009.7
20260904225045 26 154 0.0 0.0 0.00 0.10 0.10 81 1010.0
20260904224540 26 148 0.0 0.0 0.00 0.10 0.10 80 1009.7
20260904224040 26 156 0.0 0.0 0.00 0.10 0.10 80 1009.9
20260904223539 27 135 0.0 0.0 0.00 0.10 0.10 78 1009.6
20260904223035 27 136 0.0 0.0 0.00 0.10 0.10 78 1009.9
20260904222531 27 152 0.0 0.0 0.00 0.10 0.10 79 1009.9
20260904222026 27 145 0.0 0.0 0.00 0.10 0.10 79 1009.7
20260904221520 27 139 0.0 0.0 0.00 0.10 0.10 78 1009.8
20260904221015 27 140 0.0 0.0 0.00 0.10 0.10 76 1009.9
20260904220514 27 142 0.0 0.0 0.00 0.10 0.10 75 1009.8
20260904220011 27 135 0.0 0.0 0.00 0.10 0.10 81 1009.7
20260904215505 27 128 0.0 0.0 0.00 0.10 0.10 80 1009.9
20260904215001 27 150 0.0 0.0 0.00 0.10 0.10 78 1010.0
20260904214456 27 144 0.0 0.0 0.00 0.10 0.10 77 1009.8
20260904213951 27 141 0.0 0.0 0.00 0.10 0.10 80 1010.1
20260904213449 27 139 0.0 0.0 0.00 0.10 0.10 82 1010.1
20260904212946 27 141 0.0 0.0 0.00 0.10 0.10 79 1010.1
20260904212445 27 142 0.0 0.0 0.00 0.10 0.10 81 1009.9
20260904211940 27 146 0.0 0.0 0.00 0.10 0.10 82 1009.7
20260904211440 28 142 0.0 0.0 0.00 0.10 0.10 81 1009.7
20260904210936 28 144 0.0 0.0 0.00 0.10 0.10 79 1009.7
20260904210435 28 140 0.0 0.0 0.00 0.10 0.10 79 1009.3
20260904205931 28 139 0.0 0.0 0.00 0.10 0.10 79 1009.4
20260904205426 28 146 0.0 0.0 0.00 0.10 0.10 77 1009.8
20260904204924 29 140 0.0 0.0 0.00 0.10 0.10 75 1009.9
20260904204419 29 162 0.0 0.0 0.00 0.10 0.10 75 1009.8
20260904203915 29 75 0.0 0.0 0.00 0.10 0.10 76 1009.9
20260904203412 28 144 0.0 0.0 0.00 0.10 0.10 76 1009.9
20260904202907 28 140 0.0 0.0 0.00 0.10 0.10 77 1010.1
20260904202403 28 148 0.0 0.0 0.00 0.10 0.10 75 1009.8
20260904201858 30 131 0.0 0.0 0.00 0.10 0.10 73 1010.0
20260904201353 30 126 0.0 0.0 0.00 0.10 0.10 69 1010.1
20260904200849 30 157 0.0 0.0 0.00 0.10 0.10 68 1009.8
20260904200347 30 144 0.0 0.0 0.00 0.10 0.10 66 1010.0
20260904195841 30 140 0.0 0.0 0.00 0.10 0.10 69 1010.3
20260904195340 31 103 0.0 0.0 0.00 0.10 0.10 67 1010.1
20260904194835 31 123 0.0 0.0 0.00 0.10 0.10 62 1010.0
20260904194335 30 221 3.2 3.2 0.00 0.10 0.10 63 1010.2
20260904193830 31 132 0.0 0.0 0.00 0.10 0.10 69 1010.1
20260904193325 30 140 0.0 0.0 0.00 0.10 0.10 66 1010.5
20260904192820 31 166 0.0 0.0 0.00 0.10 0.10 63 1010.3
20260904192315 31 101 0.0 0.0 0.00 0.10 0.10 65 1010.6
20260904191813 31 186 1.6 4.8 0.00 0.10 0.10 64 1010.6
20260904191309 30 113 0.0 0.0 0.00 0.10 0.10 69 1010.8
20260904190805 29 119 0.0 0.0 0.00 0.10 0.10 72 1010.6
20260904190300 28 123 0.0 0.0 0.00 0.10 0.10 73 1011.2
20260904185756 29 132 0.0 0.0 0.00 0.10 0.10 70 1010.9
20260904185251 29 137 0.0 0.0 0.00 0.10 0.10 73 1011.1
20260904184750 29 135 0.0 0.0 0.00 0.10 0.10 74 1011.0
20260904184246 29 129 0.0 0.0 0.00 0.10 0.10 72 1010.9
20260904183742 30 143 0.0 0.0 0.00 0.10 0.10 71 1010.9
20260904183237 30 155 0.0 0.0 0.00 0.10 0.10 71 1011.1
20260904182732 31 127 0.0 0.0 0.00 0.10 0.10 67 1011.0
20260904182227 32 163 0.0 0.0 0.00 0.10 0.10 65 1011.0
20260904181722 32 152 0.0 0.0 0.00 0.10 0.10 64 1010.9
20260904181222 31 183 0.0 0.0 0.00 0.10 0.10 65 1011.0
20260904180718 31 136 0.0 0.0 0.00 0.10 0.10 63 1010.7
20260904180213 32 136 0.0 0.0 0.00 0.10 0.10 63 1010.9
20260904175712 31 174 0.0 0.0 0.00 0.10 0.10 67 1010.9
20260904175210 30 176 0.0 0.0 0.00 0.10 0.10 74 1010.9
20260904174705 28 161 0.0 0.0 0.00 0.10 0.10 74 1011.1
20260904174201 28 144 0.0 0.0 0.00 0.10 0.10 68 1011.2
20260904173656 29 123 0.0 0.0 0.00 0.10 0.10 73 1011.1
20260904173151 30 145 0.0 0.0 0.00 0.10 0.10 69 1011.0
20260904172648 31 262 0.0 0.0 0.00 0.10 0.10 69 1011.0
20260904172147 30 154 1.6 3.2 0.00 0.10 0.10 63 1011.0
20260904171642 30 196 0.0 0.0 0.00 0.10 0.10 68 1011.1
20260904171137 30 186 0.0 0.0 0.00 0.10 0.10 72 1011.1
20260904170634 29 149 0.0 0.0 0.00 0.10 0.10 67 1011.2
20260904170129 30 150 0.0 0.0 0.00 0.10 0.10 71 1011.3
20260904165628 30 148 0.0 0.0 0.00 0.10 0.10 68 1011.1
20260904165122 30 115 0.0 0.0 0.00 0.10 0.10 70 1011.0
20260904164622 30 166 0.0 0.0 0.00 0.10 0.10 70 1011.1
20260904164117 31 179 0.0 0.0 0.00 0.10 0.10 69 1011.1
20260904163613 30 133 0.0 0.0 0.00 0.10 0.10 69 1010.9
20260904163108 30 99 0.0 1.6 0.00 0.10 0.10 67 1011.2
20260904162602 30 144 0.0 0.0 0.00 0.10 0.10 70 1011.1
20260904162057 30 226 0.0 0.0 0.00 0.10 0.10 70 1011.3
20260904161552 30 135 0.0 0.0 0.00 0.10 0.10 69 1011.1
20260904161048 30 133 0.0 0.0 0.00 0.10 0.10 72 1011.5
20260904160543 30 169 0.0 0.0 0.00 0.10 0.10 69 1011.2
20260904160039 29 148 0.0 0.0 0.00 0.10 0.10 71 1011.6
20260904155537 28 140 0.0 0.0 0.00 0.10 0.10 75 1011.6
20260904155032 30 149 0.0 0.0 0.00 0.10 0.10 75 1011.5
20260904154526 30 133 0.0 0.0 0.00 0.10 0.10 74 1011.5
20260904154021 30 156 0.0 0.0 0.00 0.10 0.10 72 1011.4
20260904153520 29 165 0.0 0.0 0.00 0.10 0.10 72 1011.5
20260904153017 30 223 0.0 1.6 0.00 0.10 0.10 70 1011.6
20260904152512 29 163 0.0 0.0 0.00 0.10 0.10 71 1011.7
20260904152008 29 170 0.0 0.0 0.00 0.10 0.10 76 1011.5
20260904151502 29 147 0.0 0.0 0.00 0.10 0.10 76 1011.5
20260904150956 29 244 0.0 1.6 0.00 0.10 0.10 73 1011.5
20260904150451 28 150 0.0 0.0 0.00 0.10 0.10 78 1011.4
20260904145950 28 115 0.0 0.0 0.00 0.10 0.10 78 1011.5
20260904145445 27 165 3.2 4.8 0.00 0.10 0.10 76 1011.5
20260904144941 27 173 0.0 0.0 0.00 0.10 0.10 79 1011.4
20260904144437 27 135 0.0 0.0 0.00 0.10 0.10 80 1011.3
20260904143932 26 130 0.0 0.0 0.00 0.10 0.10 85 1011.4